Location: Newark
(34.1333°N, 7.9667°W)
Time: 15:28:09
(UTC+00:00)

Tiangong - Pass Details

Date: 01 October 2021
Orbit: 382 x 384 km, 41.5° (Epoch: 20 October)

Event Time Altitude Azimuth Distance (km) Brightness Sun altitude
Exits shadow 05:21:17 15° 321° (NW) 1,121 3.1 -14.3°
Maximum altitude 05:22:46 21° 358° (N) 933 3.0 -14.0°
Drops below altitude 10° 05:25:13 10° 49° (NE) 1,396 4.7 -13.5°
Sets 05:27:38 0° 67° (ENE) 2,248 6.5 -13.0°
